RH
30 36 34 30 28 33 73 79 88 90 91 93 89 88 83 83 86 83 87 85 82 82 85 85 84 87 87 82 81 80 82 81 81 85 78 75 77 76 72 66 66 68 72
32 35 34 32 30 28 41 72 79 80 85 83 83 82 83 82 80 86 90 88 89 89 90 91 91 92 91 88 87 88 88 88 89 88 85 79 56 55 66 66 66 64 63
30 31 32 32 37 37 38 46 65 84 86 86 90 92 90 90 93 97 98 100 97 99 100 100 99 100 100 99 97 99 99 98 94 98 90 87 61 61 62 67 63 61 60
36 33 32 32 37 43 43 46 45 58 68 79 81 81 78 76 69 72 71 72 76 76 71 80 95 99 99 99 99 99 100 100 99 100 98 99 93 88 82 72 67 66 67
34 33 32 33 38 49 46 50 53 52 48 48 49 50 48 46 48 46 46 47 44 43 43 45 51 65 83 78 91 100 99 100 100 100 97 97 100 98 98 91 80 84 77
30 29 29 33 40 58 47 52 56 57 47 46 46 50 50 49 51 55 54 58 63 68 58 60 64 68 82 92 92 95 98 99 99 98 100 99 96 92 96 95 88 88 76
27 29 29 36 41 60 63 64 59 59 59 58 57 56 57 58 59 60 60 63 64 76 85 67 70 73 71 76 95 99 100 100 96 97 100 98 100 99 94 95 92 87 83
23 30 33 34 44 59 62 60 58 60 61 61 61 62 61 64 64 71 73 75 77 83 79 74 73 77 76 84 94 97 98 92 93 100 100 100 100 100 100 94 91 93 82
25 27 38 39 45 58 62 59 59 59 62 63 64 66 70 71 72 81 82 86 81 79 76 72 74 74 75 82 97 98 96 96 100 100 100 100 100 100 100 100 97 96 93
31 34 37 52 55 58 61 60 59 60 65 66 66 70 76 78 83 88 86 84 81 78 76 76 76 78 79 85 99 97 94 96 96 99 99 100 99 100 99 100 100 99 99
38 48 52 60 65 68 67 64 64 66 66 68 70 73 76 81 86 86 87 84 82 78 78 78 81 82 85 91 98 99 95 92 94 92 92 92 95 98 97 97 92 95 99
50 55 59 63 67 68 68 67 66 65 67 69 71 74 79 82 82 82 85 84 83 82 82 82 84 86 87 90 91 92 93 91 91 91 93 92 91 95 95 96 94 95 94
55 57 60 61 62 64 67 67 71 69 70 73 74 77 78 81 82 85 86 88 89 90 88 88 88 89 90 94 94 93 94 94 93 91 90 92 91 93 95 97 98 99 100
52 54 56 57 60 64 66 70 72 72 75 78 77 77 80 83 86 90 91 92 92 92 93 96 97 94 93 97 100 100 100 99 99 100 99 96 96 99 100 100 99 97 99
46 53 55 53 58 65 70 70 70 73 76 79 82 84 87 92 97 98 97 96 96 97 99 99 99 100 99 99 99 100 100 99 99 99 99 100 99 97 96 100 100 99 99
38 46 52 54 57 62 68 71 73 74 77 77 80 85 91 93 96 99 99 99 100 99 99 99 100 100 100 99 100 99 99 99 100 100 94 91 93 97 97 98 96 92 93
36 38 44 52 57 60 67 72 76 76 78 76 79 85 90 95 100 100 99 100 100 100 100 99 100 100 100 99 99 97 94 93 93 92 81 69 62 57 57 63 59 64 91
37 36 39 47 54 61 71 77 80 78 79 80 82 88 94 99 100 100 100 100 100 100 100 99 99 100 99 100 82 72 62 53 46 40 46 63 74 75 59 68 68 76 79
35 34 39 45 56 67 78 81 84 82 84 84 85 91 98 100 99 100 100 100 100 100 100 99 99 96 91 60 41 35 38 41 44 51 71 74 78 93 75 72 69 57 71
42 47 53 54 62 69 76 79 82 86 87 87 90 94 100 99 99 99 100 99 100 97 92 84 73 69 78 57 37 39 52 49 49 57 68 69 80 84 90 73 56 52 60
64 68 66 64 67 76 81 81 84 90 89 90 96 100 99 100 100 100 100 100 100 95 89 77 74 70 73 75 58 43 48 47 50 52 56 66 84 83 80 79 55 66 68
74 74 72 77 82 85 83 84 85 89 93 95 100 100 100 100 100 100 100 100 98 97 91 78 75 74 72 70 82 82 62 60 57 56 59 66 68 73 82 83 67 76 68
72 75 74 79 83 86 82 81 83 93 94 99 100 100 100 100 100 100 100 100 100 97 78 71 63 56 49 50 51 77 83 83 64 63 60 76 69 57 49 50 68 66 52
71 75 75 74 79 85 85 82 88 94 96 96 100 100 100 100 100 100 100 100 97 85 65 63 53 45 40 38 37 58 75 74 72 64 79 79 74 62 55 53 52 53 53
74 75 73 73 75 83 86 88 94 98 98 97 100 100 100 100 100 100 99 98 75 64 56 50 45 45 40 32 26 30 50 59 67 77 82 80 72 61 51 48 49 51 55
79 80 79 82 89 92 93 92 92 91 96 99 100 100 100 100 100 100 100 95 70 50 46 46 40 32 28 25 22 24 33 68 82 83 78 70 67 55 47 45 44 46 55
Wind_Speed
12 6 7 8 7 9 12 15 15 15 15 14 12 12 14 14 14 14 13 13 14 13 14 14 14 13 15 16 16 16 16 17 15 13 15 16 13 15 16 14 13 12 12
11 10 9 9 9 8 10 12 13 16 18 15 14 12 10 11 11 10 11 12 13 14 14 15 16 16 16 17 17 17 17 15 13 10 8 5 13 15 10 10 10 10 9
16 10 10 9 8 8 9 11 14 14 14 14 12 10 10 10 7 8 7 8 11 12 15 16 16 17 17 19 18 16 15 16 14 14 10 3 7 3 6 7 8 8 7
5 5 7 8 9 8 9 9 11 13 15 16 14 14 13 12 8 8 9 10 11 12 12 12 13 16 17 19 20 21 20 20 17 13 16 18 8 3 3 6 7 7 8
12 11 13 13 10 10 12 11 9 9 11 11 10 9 7 6 6 6 5 6 7 9 10 11 12 12 11 14 14 13 15 17 17 17 14 14 12 13 8 4 6 7 5
17 16 16 11 12 12 12 13 12 10 11 10 10 8 8 6 5 4 5 5 5 6 7 8 8 9 9 9 10 12 14 16 17 19 19 17 7 9 9 6 7 4 6
17 17 17 17 18 17 17 16 15 13 11 10 8 7 7 6 5 5 6 6 6 5 6 9 9 10 11 12 10 11 13 14 17 18 16 21 21 13 10 8 4 5 6
9 12 14 18 19 18 18 16 16 13 10 9 7 6 5 5 5 5 5 5 5 5 7 8 9 10 11 11 10 10 11 13 14 16 16 17 17 15 15 9 7 3 6
10 10 7 14 17 20 20 17 14 12 10 8 6 5 4 5 5 6 6 5 6 6 7 7 8 9 9 9 8 7 7 8 7 6 7 9 7 9 9 10 9 5 2
8 7 8 12 15 17 17 16 14 12 10 8 6 5 4 5 5 6 5 6 6 6 6 6 6 6 6 6 4 7 7 6 4 1 2 3 2 2 3 3 4 6 3
5 4 6 12 15 16 13 13 12 11 8 6 4 4 4 4 5 5 5 5 6 5 5 5 5 4 3 3 0 4 6 5 3 3 3 2 2 2 2 3 3 2 3
3 3 7 13 16 15 15 13 11 10 8 6 5 4 4 4 5 5 5 5 4 4 5 5 4 3 3 1 2 3 4 4 5 4 4 3 2 2 2 2 2 1 2
5 7 10 12 14 15 15 15 13 10 8 7 6 5 5 5 6 6 5 4 4 3 3 2 2 3 3 2 3 4 5 5 5 5 5 4 4 4 4 4 3 2 2
9 10 11 14 15 15 14 13 11 9 8 7 7 7 7 6 6 5 4 4 4 3 2 2 1 2 3 3 4 5 7 7 7 7 8 7 7 6 6 5 4 3 2
11 12 13 12 15 15 14 12 11 10 9 8 7 7 7 7 6 4 4 4 4 4 3 3 2 3 3 5 7 7 9 9 9 9 10 11 11 9 6 5 4 3 2
12 14 13 16 18 19 18 15 14 12 11 10 9 8 9 8 8 8 7 6 6 6 6 5 4 4 5 7 9 9 9 9 8 8 8 7 5 5 4 5 5 4 1
14 14 15 19 21 21 19 17 15 13 12 11 10 10 10 9 8 9 10 9 9 9 8 7 6 6 7 8 10 11 10 10 10 9 7 5 4 2 2 2 1 4 4
14 13 15 20 21 19 18 16 14 14 13 11 11 11 11 10 9 10 11 11 11 10 11 9 8 7 7 9 10 10 11 11 10 8 6 4 4 3 3 2 2 1 3
13 13 15 19 19 20 19 18 16 14 13 14 14 13 12 12 11 12 13 14 14 12 11 11 10 11 10 9 9 8 8 8 7 5 3 3 3 1 2 2 1 1 2
11 9 9 13 18 19 19 18 17 16 16 16 14 12 12 12 14 15 16 15 14 12 10 12 12 10 9 7 6 6 5 4 4 4 3 3 2 2 2 1 2 3 3
8 4 7 11 14 17 18 17 15 16 15 14 13 13 13 14 16 16 16 15 15 12 11 11 11 10 8 7 7 5 4 3 5 5 5 4 4 3 2 3 2 4 3
3 1 6 9 11 14 16 14 15 13 14 15 14 13 14 15 16 17 17 16 15 13 10 10 8 8 8 9 8 7 5 6 5 5 5 4 3 4 4 5 4 5 5
2 3 6 9 10 12 13 13 13 14 15 14 14 14 16 16 17 17 17 16 14 12 12 11 11 10 11 11 12 9 9 8 6 5 6 5 4 4 5 6 5 6 5
6 5 7 9 10 11 12 11 12 15 16 15 14 15 17 17 17 18 17 16 15 15 13 13 12 11 11 12 13 13 11 10 8 7 6 6 5 5 5 6 7 6 6
7 8 9 9 11 12 14 13 14 16 16 15 15 17 19 17 17 17 19 16 15 16 15 15 13 13 12 15 14 14 12 9 8 6 6 6 6 6 6 7 7 7 7
10 10 11 10 10 14 15 18 19 21 21 19 16 17 17 18 16 16 15 18 16 18 18 16 15 15 15 11 12 13 12 9 8 8 9 9 7 7 8 8 8 8 9
Wind_Direction
218 239 240 223 226 211 207 213 217 213 209 206 211 225 227 232 236 237 239 239 241 243 244 248 250 249 251 255 257 259 261 262 264 270 271 272 272 267 269 274 273 275 276
208 221 228 228 222 215 213 214 216 214 213 210 215 222 219 226 232 234 240 242 245 247 248 250 255 256 256 258 257 254 254 256 251 251 275 278 284 270 259 261 262 273 275
219 212 227 233 215 209 212 218 221 220 214 212 207 210 221 229 228 231 234 236 244 249 250 254 257 259 253 255 257 254 247 243 249 238 243 258 259 312 251 275 274 273 276
247 220 222 230 235 209 199 204 213 215 215 214 215 220 229 236 233 228 237 247 253 256 258 259 259 260 262 264 265 264 263 256 248 247 248 247 252 217 266 245 256 260 272
240 239 235 232 218 211 199 191 185 189 197 199 195 193 197 201 219 237 248 254 260 260 261 260 260 261 260 262 261 261 257 254 251 245 248 243 229 235 235 249 243 271 279
253 251 246 204 200 199 197 190 178 176 182 184 183 179 180 188 206 227 241 247 251 255 255 259 261 263 266 267 266 264 259 255 254 252 248 230 215 208 209 231 245 270 286
247 249 235 215 195 189 187 182 177 173 172 172 166 175 182 194 211 228 243 248 249 243 255 265 271 273 270 269 269 268 267 261 259 254 249 250 247 242 223 200 195 214 246
251 237 236 231 202 187 186 185 178 170 171 171 167 178 201 208 216 228 237 242 241 249 262 269 273 273 272 271 269 265 267 267 261 260 254 255 249 242 231 207 199 224 223
260 256 221 216 206 187 184 178 178 173 171 175 175 179 207 236 234 229 228 223 239 250 267 275 277 278 276 273 269 256 257 258 254 238 236 229 207 199 201 210 217 199 203
277 258 231 203 192 189 177 173 174 176 172 173 179 180 205 230 241 237 220 221 231 252 267 276 279 284 285 276 258 242 239 240 237 180 152 159 172 156 161 172 185 199 232
298 254 210 185 168 158 163 164 167 169 171 176 178 190 193 210 213 218 224 222 231 243 263 266 270 277 281 276 216 217 231 231 232 243 236 221 182 164 159 151 139 151 190
304 177 178 170 160 158 162 169 174 177 177 179 192 206 208 210 214 218 223 232 234 242 243 247 239 239 239 210 136 126 115 118 115 112 118 111 111 97 80 86 99 159 233
186 165 169 178 175 176 178 177 179 181 187 187 191 204 224 229 226 228 227 226 228 228 226 236 229 218 201 183 163 136 120 113 102 95 92 82 80 76 69 75 81 83 69
214 187 188 188 189 189 189 189 186 187 187 196 201 206 220 222 220 221 218 213 195 194 168 186 204 209 195 192 172 148 128 116 107 99 86 78 83 87 84 82 80 79 82
235 216 199 203 199 198 197 196 196 196 198 200 207 213 210 202 195 196 207 199 174 173 165 187 199 162 160 174 157 150 136 129 123 112 104 101 90 82 95 104 89 88 98
245 229 220 211 207 204 202 198 199 199 202 208 210 203 197 195 194 197 202 206 193 182 170 163 142 131 135 151 153 147 138 133 130 122 121 122 113 86 81 77 75 68 50
272 240 224 217 213 207 202 201 199 196 203 209 208 202 199 202 204 202 199 201 196 184 168 156 144 132 135 143 159 151 141 145 137 132 128 103 99 105 84 85 43 37 72
256 245 230 219 213 205 198 190 190 195 200 205 205 201 199 196 205 202 199 196 188 181 167 161 152 150 137 141 140 137 134 135 132 122 115 103 82 64 67 52 35 21 38
265 276 244 226 202 193 189 182 184 190 197 200 203 200 197 192 198 195 192 189 185 183 173 170 171 162 152 145 142 146 141 139 121 131 131 133 125 144 359 44 11 277 259
273 272 240 207 190 185 180 180 183 189 198 199 197 193 195 195 196 197 191 188 186 182 173 176 172 171 157 167 169 170 156 141 155 189 191 185 193 195 230 346 309 287 274
313 287 195 193 182 170 172 181 183 194 198 192 189 188 196 200 201 195 189 187 182 183 184 188 186 182 180 181 190 177 172 184 209 204 203 207 204 213 229 255 294 294 275
333 207 164 158 160 168 175 179 191 193 189 187 186 188 197 199 195 191 187 188 186 186 190 191 196 205 206 197 203 210 202 208 222 220 216 213 218 244 239 240 258 243 276
280 174 157 152 165 177 184 187 193 184 185 187 186 190 196 197 194 187 186 185 189 193 197 202 211 217 218 219 213 212 211 223 230 230 233 219 240 266 266 244 224 246 262
216 192 176 180 183 190 194 199 189 185 185 187 189 191 192 194 193 196 197 194 196 198 201 211 219 217 215 220 217 217 217 225 231 245 236 233 239 259 246 244 247 250 247
214 204 205 202 198 199 201 198 192 186 192 193 190 194 197 191 193 201 204 206 211 203 201 211 216 214 219 228 227 220 215 217 226 226 229 236 241 249 243 244 244 244 244
221 215 214 212 212 205 208 207 203 198 191 186 194 194 195 194 199 204 213 222 218 222 224 230 231 236 238 239 229 224 221 217 223 228 243 245 245 246 244 242 246 244 244